SCOUT A DEB, 3214

Orbit data source: Space-Track

SCOUT A DEB, 3214 is space debris in LEO originally from a launch on Sat, 02 Mar 1968 UTC launched from the Air Force Western Test Range (AFWTR). Debris objects in space refer to the collection of defunct objects orbiting the Earth. Examples of debris include non-operational satellites, rocket bodies, and fragments generated from explosions, collisions, or faulty payload assembly.

Loading next visibility...
Identifier
3214, 1968-012D
Orbit
LEO
Last TLE update
1 day ago
Origin
Manufacturer
Unknown
Mission
Spacecraft
Bus & Motor
Unknown
Mass
Unknown
Launch date (UTC)
1968-03-02 (57 years ago)
Launch vehicle
Unknown
Launch site
Air Force Western Test Range (AFWTR)
Object type
Payload
Rocket body
Debris
Shape & HBR
Unknown
Radar Cross Section
Small (<0.1 m²)

Expand to show TLE details & history

TLE from 1 day ago
0 SCOUT A DEB
1 03214U 68012D   25127.95097045  .00000239  00000-0  45768-3 0  9990
2 03214  89.8313 110.4589 0184397 308.1971 105.3995 13.29151115530709
Epoch: 2025-05-07T22:49Z
Definitive object data (Epoch: 2025-05-07T22:49:23.846Z)
Latitude
55.71242°
Longitude
-97.67275°
Altitude
1,198.529 km
Speed
7.241 km/s
True Right ascension
07h 22m 49s
True Declination
55° 33' 41"
Sunlit
Object was in daylight at TLE epoch
Visualization TLE readout
Latitude
-49.65531°
Longitude
-98.13961°
Altitude
1,031.246 km
Speed
7.402 km/s
Apparent Right ascension
06h 03m 17s
Apparent Declination
-46° 37' 02"
Sunlit
Object is in daylight
Visualization observer readout
Local Sidereal Time
16:47:09
Azimuth
237.848° WSW
Elevation
-74.661°
Doppler factor
1
Orbital elements
Apogee altitude
1,285.808 km
Perigee altitude
1,008.284 km
Semi-major axis
7,525.183 km
Eccentricity
0.0184397
Inclination
89.8313°
RAAN
110.4589°
Arg. of periapsis
308.1971°
True anomaly
107.42385°
Mean anomaly
105.3995°
Eccentric anomaly
106.41296°
Mean motion
3.32482 °/min
BSTAR
0.00045768
Orbital period
108.28 mins
Loading maneuver chart data...
Loading SW <> Apogee altitude chart data...
Loading historical data...
Loading historical data...
Loading historical data...
Loading historical data...
Loading historical data...
Loading historical data...
Loading historical data...

SCOUT A DEB Visibility forecast

Observer location: undefined°, undefined°

Span
Click to sort rows by Start time (UTC) header in descending order
Start Az.
Max El. time (UTC)
Max El. Az.
Max El.
End time (UTC)
End Az.
10 mins2025-05-09 09:29:58.039Z35.64° NE2025-05-09 09:34:58.039Z79.084° E19.095°2025-05-09 09:39:58.039Z121.055° SE
14 mins2025-05-09 11:16:58.039Z358.01° N2025-05-09 11:23:58.039Z249.886° W43.996°2025-05-09 11:30:58.039Z191.405° SSW
4 mins2025-05-09 13:08:58.039Z305.591° NW2025-05-09 13:09:58.039Z297.366° NW13.117°2025-05-09 13:12:58.039Z272.982° WNW
8 mins2025-05-09 21:40:58.039Z104.576° ESE2025-05-09 21:43:58.039Z73.201° E20.392°2025-05-09 21:48:58.039Z27.302° NE
12 mins2025-05-09 23:25:58.039Z191.354° SSW2025-05-09 23:31:58.039Z291.526° WNW41.896°2025-05-09 23:37:58.039Z351.196° N
|